VIV9014 MMMD-MMTG

Flight info

Callsign VIV9014
Flight time 0h 59m
Altitude 34000
Route ELSIP1A ELSIP UJ9 CME UJ25 TGZ
Aircraft A20N/M-SDE2E3FGHIJ1RWXY/LB1

Departure

Time 2026-04-29 03:15
Airport Manuel Crescencio Rejón International Airport (MMMD)

Arrival

Time 2026-04-29 04:15
Airport Angel Albino Corzo International Airport (MMTG)
Time Latitude Longitude Altitude Speed Heading
2026-04-29 02:57 20.93454 -89.66200 44 ft 0 kts 270°
2026-04-29 03:05 20.93454 -89.66195 44 ft 2 kts 270°
2026-04-29 03:05 20.93454 -89.66179 44 ft 2 kts 270°
2026-04-29 03:05 20.93454 -89.66163 43 ft 2 kts 271°
2026-04-29 03:05 20.93453 -89.66147 43 ft 2 kts 270°
2026-04-29 03:06 20.93453 -89.66131 43 ft 2 kts 270°
2026-04-29 03:06 20.93450 -89.66116 43 ft 2 kts 302°
2026-04-29 03:06 20.93440 -89.66103 43 ft 2 kts 326°
2026-04-29 03:06 20.93426 -89.66097 43 ft 2 kts 351°
2026-04-29 03:07 20.93418 -89.66097 43 ft 1 kts
2026-04-29 03:07 20.93414 -89.66097 43 ft 0 kts
2026-04-29 03:09 20.93423 -89.66097 43 ft 3 kts
2026-04-29 03:10 20.93457 -89.66095 43 ft 6 kts
2026-04-29 03:10 20.93505 -89.66094 43 ft 5 kts 359°
2026-04-29 03:10 20.93541 -89.66088 44 ft 4 kts 31°
2026-04-29 03:10 20.93549 -89.66056 44 ft 5 kts 94°
2026-04-29 03:11 20.93548 -89.66007 44 ft 7 kts 90°
2026-04-29 03:11 20.93558 -89.65968 43 ft 5 kts
2026-04-29 03:11 20.93597 -89.65970 43 ft 6 kts 354°
2026-04-29 03:11 20.93639 -89.65973 43 ft 4 kts 359°
2026-04-29 03:12 20.93644 -89.65973 43 ft 0 kts 359°
2026-04-29 03:12 20.93645 -89.65973 43 ft 1 kts 359°
2026-04-29 03:12 20.93665 -89.65973 43 ft 4 kts
2026-04-29 03:13 20.93704 -89.65972 44 ft 6 kts
2026-04-29 03:13 20.93750 -89.65966 45 ft 4 kts 40°
2026-04-29 03:13 20.93743 -89.65929 45 ft 4 kts 107°
2026-04-29 03:13 20.93742 -89.65924 45 ft 0 kts 105°
2026-04-29 03:15 20.93669 -89.65637 43 ft 79 kts 105°
2026-04-29 03:15 20.93461 -89.64823 44 ft 144 kts 105°
2026-04-29 03:15 20.93164 -89.63627 246 ft 177 kts 103°
2026-04-29 03:15 20.92860 -89.62379 1004 ft 174 kts 103°
2026-04-29 03:16 20.92558 -89.61211 1962 ft 161 kts 104°
2026-04-29 03:16 20.92253 -89.60046 2530 ft 171 kts 105°
2026-04-29 03:16 20.91919 -89.58765 2971 ft 189 kts 107°
2026-04-29 03:16 20.91249 -89.57452 3323 ft 216 kts 133°
2026-04-29 03:17 20.89874 -89.56612 3799 ft 244 kts 163°
2026-04-29 03:17 20.88106 -89.56479 4356 ft 263 kts 174°
2026-04-29 03:17 20.86254 -89.56396 5098 ft 270 kts 173°
2026-04-29 03:17 20.84348 -89.56286 5906 ft 276 kts 174°
2026-04-29 03:18 20.82441 -89.56184 6658 ft 280 kts 175°
2026-04-29 03:18 20.80467 -89.56087 7367 ft 287 kts 174°
2026-04-29 03:18 20.78448 -89.55987 8109 ft 292 kts 174°
2026-04-29 03:18 20.76372 -89.55953 8814 ft 299 kts 177°
2026-04-29 03:19 20.74279 -89.56001 9523 ft 304 kts 177°
2026-04-29 03:19 20.72149 -89.56087 10214 ft 309 kts 182°
2026-04-29 03:19 20.70060 -89.56805 10625 ft 329 kts 211°
2026-04-29 03:19 20.68271 -89.58447 10958 ft 346 kts 224°
2026-04-29 03:20 20.66559 -89.60371 11242 ft 363 kts 226°
2026-04-29 03:20 20.64817 -89.62354 11523 ft 377 kts 226°
2026-04-29 03:20 20.62984 -89.64413 12000 ft 385 kts 226°
2026-04-29 03:20 20.61114 -89.66485 12555 ft 390 kts 226°
2026-04-29 03:21 20.59221 -89.68560 13160 ft 391 kts 226°
2026-04-29 03:21 20.57327 -89.70624 13726 ft 393 kts 225°
2026-04-29 03:21 20.55384 -89.72735 14241 ft 397 kts 226°
2026-04-29 03:21 20.53451 -89.74825 14785 ft 401 kts 226°
2026-04-29 03:22 20.51483 -89.76951 15373 ft 404 kts 226°
2026-04-29 03:22 20.49485 -89.79111 15990 ft 406 kts 226°
2026-04-29 03:22 20.47502 -89.81252 16553 ft 409 kts 226°
2026-04-29 03:22 20.45485 -89.83426 17072 ft 413 kts 226°
2026-04-29 03:23 20.43467 -89.85604 17634 ft 415 kts 227°
2026-04-29 03:23 20.41438 -89.87787 18186 ft 418 kts 227°
2026-04-29 03:23 20.39382 -89.90003 18684 ft 421 kts 227°
2026-04-29 03:23 20.37316 -89.92228 19204 ft 424 kts 227°
2026-04-29 03:24 20.35227 -89.94477 19678 ft 428 kts 227°
2026-04-29 03:24 20.33142 -89.96720 20173 ft 431 kts 228°
2026-04-29 03:24 20.31003 -89.99018 20677 ft 434 kts 228°
2026-04-29 03:24 20.28876 -90.01304 21139 ft 438 kts 228°
2026-04-29 03:25 20.26730 -90.03612 21589 ft 443 kts 228°
2026-04-29 03:25 20.24563 -90.05943 22087 ft 446 kts 228°
2026-04-29 03:25 20.22347 -90.08322 22574 ft 449 kts 228°
2026-04-29 03:25 20.20142 -90.10686 23021 ft 453 kts 228°
2026-04-29 03:26 20.17925 -90.13066 23470 ft 457 kts 229°
2026-04-29 03:26 20.15683 -90.15472 23972 ft 459 kts 228°
2026-04-29 03:26 20.13441 -90.17876 24414 ft 463 kts 229°
2026-04-29 03:26 20.11146 -90.20334 24794 ft 468 kts 229°
2026-04-29 03:27 20.08852 -90.22795 25207 ft 472 kts 228°
2026-04-29 03:27 20.06529 -90.25281 25639 ft 474 kts 229°
2026-04-29 03:27 20.04191 -90.27782 26140 ft 475 kts 229°
2026-04-29 03:27 20.01863 -90.30276 26654 ft 476 kts 229°
2026-04-29 03:28 19.99534 -90.32767 27044 ft 479 kts 229°
2026-04-29 03:28 19.97174 -90.35290 27390 ft 484 kts 229°
2026-04-29 03:28 19.94792 -90.37838 27743 ft 488 kts 229°
2026-04-29 03:28 19.92376 -90.40417 28230 ft 488 kts 229°
2026-04-29 03:29 19.90010 -90.42947 28787 ft 485 kts 229°
2026-04-29 03:29 19.87610 -90.45503 29279 ft 485 kts 229°
2026-04-29 03:29 19.85255 -90.48017 29727 ft 484 kts 230°
2026-04-29 03:29 19.82873 -90.50556 30122 ft 484 kts 230°
2026-04-29 03:30 19.80515 -90.53150 30526 ft 484 kts 231°
2026-04-29 03:30 19.78225 -90.55726 30960 ft 483 kts 232°
2026-04-29 03:30 19.75937 -90.58308 31367 ft 482 kts 232°
2026-04-29 03:30 19.73619 -90.60922 31694 ft 483 kts 231°
2026-04-29 03:31 19.68998 -90.66116 32412 ft 484 kts 232°
2026-04-29 03:31 19.66691 -90.68708 32714 ft 485 kts 232°
2026-04-29 03:31 19.64381 -90.71302 32983 ft 487 kts 231°
2026-04-29 03:32 19.62045 -90.73926 33240 ft 489 kts 231°
2026-04-29 03:32 19.59694 -90.76559 33555 ft 490 kts 232°
2026-04-29 03:32 19.57366 -90.79164 33890 ft 489 kts 231°
2026-04-29 03:32 19.55015 -90.81799 33917 ft 490 kts 231°
2026-04-29 03:33 19.50336 -90.87020 33917 ft 489 kts 231°
2026-04-29 03:33 19.45643 -90.92260 33914 ft 490 kts 231°
2026-04-29 03:34 19.40960 -90.97486 33913 ft 490 kts 231°
2026-04-29 03:34 19.36284 -91.02702 33911 ft 488 kts 231°
2026-04-29 03:35 19.31588 -91.07944 33909 ft 489 kts 231°
2026-04-29 03:35 19.26925 -91.13139 33909 ft 488 kts 231°
2026-04-29 03:36 19.22245 -91.18330 33903 ft 488 kts 230°
2026-04-29 03:36 19.17539 -91.23515 33903 ft 489 kts 230°
2026-04-29 03:37 19.12814 -91.28725 33905 ft 488 kts 231°
2026-04-29 03:37 19.08120 -91.33911 33902 ft 487 kts 231°
2026-04-29 03:38 19.03453 -91.39066 33902 ft 487 kts 230°
2026-04-29 03:38 18.98764 -91.44239 33909 ft 486 kts 231°
2026-04-29 03:39 18.94086 -91.49392 33908 ft 487 kts 231°
2026-04-29 03:39 18.89429 -91.54547 33907 ft 487 kts 231°
2026-04-29 03:40 18.84717 -91.59772 33910 ft 488 kts 231°
2026-04-29 03:40 18.80063 -91.64941 33912 ft 488 kts 230°
2026-04-29 03:41 18.75360 -91.70152 33913 ft 489 kts 230°
2026-04-29 03:41 18.70683 -91.75301 33914 ft 489 kts 228°
2026-04-29 03:42 18.65553 -91.80079 33916 ft 492 kts 220°
2026-04-29 03:42 18.59860 -91.84164 33917 ft 496 kts 212°
2026-04-29 03:43 18.53834 -91.87737 33914 ft 496 kts 211°
2026-04-29 03:43 18.47784 -91.91287 33910 ft 497 kts 211°
2026-04-29 03:44 18.41741 -91.94862 33907 ft 497 kts 211°
2026-04-29 03:44 18.35717 -91.98435 33900 ft 498 kts 211°
2026-04-29 03:45 18.29657 -92.02023 33897 ft 498 kts 211°
2026-04-29 03:45 18.23615 -92.05590 33898 ft 497 kts 211°
2026-04-29 03:46 18.17562 -92.09169 33892 ft 498 kts 211°
2026-04-29 03:46 18.11501 -92.12746 33891 ft 497 kts 211°
2026-04-29 03:47 18.05490 -92.16299 33891 ft 497 kts 211°
2026-04-29 03:47 17.99397 -92.19896 33892 ft 498 kts 211°
2026-04-29 03:48 17.93297 -92.23489 33274 ft 508 kts 211°
2026-04-29 03:48 17.90208 -92.25301 32453 ft 512 kts 211°
2026-04-29 03:48 17.87076 -92.27141 31715 ft 514 kts 210°
2026-04-29 03:49 17.83976 -92.28960 30991 ft 516 kts 211°
2026-04-29 03:49 17.80821 -92.30812 30285 ft 517 kts 210°
2026-04-29 03:49 17.77670 -92.32668 29659 ft 514 kts 210°
2026-04-29 03:49 17.74566 -92.34487 28852 ft 515 kts 210°
2026-04-29 03:50 17.71431 -92.36328 27860 ft 521 kts 210°
2026-04-29 03:50 17.68257 -92.38187 27041 ft 522 kts 210°
2026-04-29 03:50 17.65085 -92.40043 26253 ft 521 kts 210°
2026-04-29 03:50 17.61957 -92.41875 25493 ft 519 kts 210°
2026-04-29 03:51 17.58799 -92.43725 24748 ft 515 kts 210°
2026-04-29 03:51 17.55699 -92.45541 24076 ft 510 kts 210°
2026-04-29 03:51 17.52584 -92.47366 23560 ft 501 kts 210°
2026-04-29 03:51 17.49571 -92.49130 23051 ft 493 kts 210°
2026-04-29 03:52 17.46590 -92.50875 22517 ft 486 kts 210°
2026-04-29 03:52 17.43663 -92.52586 22028 ft 478 kts 210°
2026-04-29 03:52 17.40772 -92.54276 21519 ft 472 kts 209°
2026-04-29 03:52 17.37918 -92.55946 21001 ft 467 kts 210°
2026-04-29 03:53 17.35104 -92.57592 20478 ft 462 kts 209°
2026-04-29 03:53 17.32311 -92.59227 19966 ft 457 kts 209°
2026-04-29 03:53 17.29532 -92.60854 19456 ft 453 kts 209°
2026-04-29 03:53 17.26782 -92.62460 18929 ft 448 kts 208°
2026-04-29 03:54 17.24061 -92.64049 18401 ft 445 kts 208°
2026-04-29 03:54 17.21382 -92.65612 17865 ft 441 kts 208°
2026-04-29 03:54 17.18704 -92.67173 17339 ft 437 kts 208°
2026-04-29 03:54 17.16059 -92.68716 16829 ft 433 kts 208°
2026-04-29 03:55 17.13440 -92.70237 16332 ft 428 kts 208°
2026-04-29 03:55 17.10815 -92.71765 15818 ft 424 kts 208°
2026-04-29 03:55 17.08261 -92.73252 15291 ft 420 kts 208°
2026-04-29 03:55 17.05722 -92.74728 14780 ft 417 kts 207°
2026-04-29 03:56 17.03180 -92.76206 14276 ft 413 kts 207°
2026-04-29 03:56 17.00686 -92.77660 13758 ft 409 kts 207°
2026-04-29 03:56 16.98205 -92.79101 13253 ft 405 kts 207°
2026-04-29 03:56 16.95757 -92.80521 12826 ft 397 kts 207°
2026-04-29 03:57 16.93379 -92.81901 12605 ft 382 kts 207°
2026-04-29 03:57 16.91077 -92.83237 12372 ft 370 kts 207°
2026-04-29 03:57 16.88862 -92.84520 12179 ft 357 kts 207°
2026-04-29 03:57 16.86739 -92.85754 12031 ft 339 kts 207°
2026-04-29 03:58 16.84716 -92.86931 11691 ft 326 kts 207°
2026-04-29 03:58 16.82764 -92.88064 11207 ft 316 kts 207°
2026-04-29 03:58 16.80858 -92.89170 10717 ft 305 kts 207°
2026-04-29 03:58 16.79055 -92.90218 10380 ft 290 kts 207°
2026-04-29 03:59 16.77303 -92.91236 10050 ft 282 kts 207°
2026-04-29 03:59 16.75621 -92.92215 9680 ft 273 kts 207°
2026-04-29 03:59 16.73984 -92.93164 9337 ft 264 kts 207°
2026-04-29 03:59 16.72397 -92.94087 9085 ft 251 kts 207°
2026-04-29 04:00 16.70894 -92.94959 8810 ft 242 kts 207°
2026-04-29 04:00 16.69442 -92.95802 8531 ft 234 kts 207°
2026-04-29 04:00 16.68036 -92.96616 8243 ft 232 kts 208°
2026-04-29 04:00 16.66615 -92.97438 7961 ft 232 kts 208°
2026-04-29 04:01 16.65207 -92.98253 7680 ft 231 kts 208°
2026-04-29 04:01 16.63788 -92.99074 7420 ft 231 kts 208°
2026-04-29 04:01 16.62369 -92.99895 7339 ft 232 kts 208°
2026-04-29 04:01 16.60965 -93.00707 7272 ft 232 kts 208°
2026-04-29 04:02 16.59533 -93.01537 7164 ft 232 kts 208°
2026-04-29 04:02 16.58129 -93.02348 7078 ft 231 kts 208°
2026-04-29 04:02 16.56709 -93.03181 7025 ft 231 kts 213°
2026-04-29 04:02 16.55610 -93.04351 7000 ft 230 kts 247°
2026-04-29 04:03 16.55303 -93.05967 7025 ft 226 kts 278°
2026-04-29 04:03 16.55774 -93.07501 7037 ft 221 kts 306°
2026-04-29 04:03 16.56761 -93.08710 7056 ft 220 kts 315°
2026-04-29 04:03 16.57844 -93.09839 7049 ft 219 kts 324°
2026-04-29 04:04 16.59206 -93.10500 7039 ft 215 kts 353°
2026-04-29 04:04 16.60677 -93.10414 7047 ft 212 kts 20°
2026-04-29 04:04 16.61943 -93.09650 7045 ft 210 kts 45°
2026-04-29 04:04 16.62741 -93.08379 7039 ft 212 kts 71°
2026-04-29 04:05 16.62908 -93.06857 7041 ft 215 kts 97°
2026-04-29 04:05 16.62380 -93.05396 7035 ft 220 kts 124°
2026-04-29 04:05 16.61233 -93.04333 7030 ft 225 kts 152°
2026-04-29 04:05 16.59690 -93.03942 7032 ft 229 kts 176°
2026-04-29 04:06 16.58110 -93.03767 7016 ft 227 kts 157°
2026-04-29 04:06 16.56842 -93.02866 7024 ft 222 kts 130°
2026-04-29 04:06 16.55807 -93.01654 7024 ft 222 kts 129°
2026-04-29 04:06 16.54786 -93.00442 7015 ft 222 kts 129°
2026-04-29 04:07 16.53764 -92.99242 6875 ft 219 kts 129°
2026-04-29 04:07 16.52750 -92.98064 6553 ft 221 kts 130°
2026-04-29 04:07 16.51707 -92.96863 6212 ft 223 kts 129°
2026-04-29 04:07 16.50664 -92.95663 5935 ft 222 kts 129°
2026-04-29 04:08 16.49631 -92.94473 5711 ft 220 kts 130°
2026-04-29 04:08 16.48608 -92.93298 5515 ft 219 kts 130°
2026-04-29 04:08 16.47580 -92.92122 5327 ft 218 kts 130°
2026-04-29 04:08 16.46553 -92.90945 5142 ft 217 kts 130°
2026-04-29 04:09 16.45531 -92.89805 4994 ft 215 kts 137°
2026-04-29 04:09 16.44230 -92.89008 4998 ft 219 kts 162°
2026-04-29 04:09 16.42704 -92.88823 5012 ft 221 kts 186°
2026-04-29 04:09 16.41215 -92.89284 5020 ft 221 kts 210°
2026-04-29 04:10 16.40040 -92.90302 5005 ft 219 kts 234°
2026-04-29 04:10 16.39372 -92.91645 4980 ft 200 kts 256°
2026-04-29 04:10 16.39435 -92.93006 4756 ft 182 kts 295°
2026-04-29 04:10 16.40252 -92.93889 4533 ft 166 kts 339°
2026-04-29 04:11 16.41359 -92.94123 4424 ft 160 kts 351°
2026-04-29 04:11 16.42450 -92.94361 4319 ft 159 kts 345°
2026-04-29 04:11 16.43503 -92.94749 4278 ft 161 kts 338°
2026-04-29 04:11 16.44524 -92.95245 3997 ft 161 kts 333°
2026-04-29 04:12 16.45496 -92.95787 3728 ft 153 kts 331°
2026-04-29 04:12 16.46399 -92.96336 3476 ft 148 kts 330°
2026-04-29 04:12 16.47283 -92.96894 3241 ft 149 kts 329°
2026-04-29 04:12 16.48175 -92.97469 3057 ft 150 kts 329°
2026-04-29 04:13 16.49068 -92.98044 2866 ft 148 kts 329°
2026-04-29 04:13 16.49939 -92.98605 2677 ft 145 kts 329°
2026-04-29 04:13 16.50802 -92.99158 2493 ft 142 kts 328°
2026-04-29 04:13 16.51642 -92.99696 2312 ft 139 kts 328°
2026-04-29 04:14 16.52456 -93.00217 2143 ft 137 kts 327°
2026-04-29 04:14 16.53268 -93.00739 1965 ft 135 kts 327°
2026-04-29 04:14 16.54073 -93.01242 1759 ft 133 kts 327°
2026-04-29 04:14 16.54862 -93.01752 1631 ft 132 kts 324°
2026-04-29 04:15 16.55628 -93.02259 1529 ft 127 kts 327°
2026-04-29 04:15 16.56274 -93.02673 1526 ft 82 kts 327°
2026-04-29 04:15 16.56621 -93.02894 1529 ft 37 kts 327°
2026-04-29 04:15 16.56761 -93.02988 1530 ft 14 kts 327°
2026-04-29 04:16 16.56810 -93.03007 1530 ft 6 kts 89°
2026-04-29 04:16 16.56768 -93.02976 1529 ft 8 kts 165°
2026-04-29 04:16 16.56710 -93.02953 1529 ft 9 kts 151°
2026-04-29 04:16 16.56643 -93.02914 1529 ft 12 kts 150°
2026-04-29 04:17 16.56564 -93.02860 1528 ft 16 kts 145°
2026-04-29 04:17 16.56454 -93.02785 1527 ft 20 kts 148°
2026-04-29 04:17 16.56330 -93.02707 1526 ft 20 kts 150°
2026-04-29 04:17 16.56209 -93.02629 1526 ft 20 kts 139°
2026-04-29 04:18 16.56129 -93.02511 1525 ft 20 kts 117°
2026-04-29 04:18 16.56060 -93.02379 1523 ft 20 kts 121°
2026-04-29 04:18 16.56016 -93.02267 1522 ft 13 kts 81°
2026-04-29 04:18 16.56065 -93.02184 1519 ft 12 kts 57°
2026-04-29 04:19 16.56095 -93.02132 1517 ft 9 kts 59°
2026-04-29 04:19 16.56115 -93.02087 1515 ft 5 kts 112°
2026-04-29 04:19 16.56090 -93.02070 1515 ft 1 kts 151°
2026-04-29 04:19 16.56082 -93.02067 1515 ft 0 kts 154°
2026-04-29 04:20 16.56078 -93.02064 1515 ft 0 kts 151°
2026-04-29 04:20 16.56076 -93.02063 1515 ft 0 kts 151°